Location: Bratislava
(0.0000°N, 17.1167°E)
Time: 04:31:12
(UTC+01:00)

NATO 3D Rocket - Pass Details

Date: 24 January 2021
Orbit: 670 x 2296 km, 21.5° (Epoch: 06 March)

Event Time Altitude Azimuth Distance (km) Brightness Sun altitude
Rises 19:00:01 0° 249° (WSW) 3,080 8.7 -13.3°
Reaches altitude 10° 19:02:26 10° 251° (WSW) 2,103 7.3 -13.9°
Maximum altitude 19:07:08 78° 337° (NNW) 687 3.2 -15.0°
Enters shadow 19:09:58 25° 61° (ENE) 1,394 4.2 -15.6°
